DMC3-FM1

Last updated on Wed Aug 19 2026 00:02:51 GMT+0000 (Coordinated Universal Time)

1 40715U 15032A 26230.56837333 .00000114 00000+0 19054-4 0 9997 2 40715 97.6368 93.2720 0004803 192.9292 167.1802 14.85793392599177
UTC large
Height (km)
Speed (km/s)
/
Latitude / Longitude
Inclination (degrees)
Orbital Period (minutes)
Azimuth
Elevation
Range (km)
Doppler Factor

Next 0 passes for location: London (51.5072 / 0.1276)

No passes found over London.
DMC3-FM1